[[{"header":{"parameterUnit":"m.s-1","parameterCategory":1,"la1":30.2991,"la2":30.254,"lo1":-89.0895,"lo2":-89.0444,"dy":0.0017,"dx":0.0017,"nx":28,"ny":28,"refTime":"2024-04-13T03:00:00:Z","depth":0,"parameterNumber":2,"parameterNumberName":"U-component_of_WINDS"},"data":[0,0,0,0,0,0,0,0,0,0,0,0,0,0,0,0,0,0,0,0,0,0,0,0,0,0,0,0,0,0,0,0,0,0,0,0,0,0,0,0,0,0,0,0,0,0,0,0,0,0,0,0,0,0,0,0,0,0,1.5872,1.5873,0,1.5987,1.5988,1.599,1.6015,1.6014,1.6013,1.6013,1.613,1.6134,1.6137,0,0,0,0,0,0,0,0,0,0,0,0,0,1.5671,1.5674,1.5872,1.5873,1.5875,1.5987,1.5989,1.599,1.6015,1.6014,1.6013,1.6012,1.6129,1.6133,1.6138,0,0,0,0,0,0,0,0,0,0,0,0,0,1.5769,1.5675,1.5871,1.5901,1.5904,1.5987,1.5989,1.5991,1.6015,1.6014,1.6013,1.6012,1.6127,1.6133,1.6138,1.6199,0,0,1.6156,1.6159,0,0,0,0,0,0,0,0,1.5763,1.5776,1.5895,1.5899,1.5903,1.5985,1.5961,1.6061,1.6016,1.5973,1.6013,1.6011,1.6083,1.6092,1.6116,1.6205,1.621,1.6157,1.616,1.6163,1.6165,0,0,0,0,0,0,0,1.5757,1.5772,1.5917,1.5897,1.5902,1.5907,1.592,1.598,1.6034,1.5977,1.5979,1.5992,1.6085,1.6111,1.6119,1.6212,1.6157,1.6162,1.6165,1.6168,1.6354,1.6355,0,0,0,0,0,0,1.5745,1.5766,1.5914,1.5921,1.5829,1.5912,1.5926,1.596,1.6033,1.6043,1.5993,1.5993,1.6101,1.6113,1.6124,1.6198,1.6163,1.6168,1.6172,1.6352,1.6354,1.6355,0,0,0,0,0,0,1.574,1.5758,1.5909,1.5844,1.5864,1.5917,1.5955,1.5963,1.5989,1.6045,1.6055,1.601,1.6101,1.6115,1.618,1.6203,1.6171,1.6176,1.635,1.6353,1.6355,1.6348,0,0,0,0,0,0,1.5735,1.5756,1.5781,1.5844,1.5867,1.5964,1.5956,1.5966,1.5999,1.6,1.6064,1.6073,1.6101,1.6171,1.6186,1.621,1.6181,1.6349,1.6351,1.6354,1.6347,1.635,1.6353,0,0,0,0,0,1.5727,1.5775,1.5782,1.5799,1.5899,1.5965,1.5978,1.601,1.6001,1.6025,1.6061,1.6071,1.6198,1.6177,1.6194,1.6221,1.6347,1.6351,1.6354,1.6345,1.6349,1.6353,0,0,0,0,0,0,1.5712,1.5783,1.5792,1.5862,1.5907,1.5969,1.6001,1.6013,1.6062,1.6061,1.6098,1.6112,1.6173,1.6204,1.618,1.6282,1.6272,1.6279,1.626,1.6264,1.6267,1.6258,1.6186,0,0,0,0,0,1.5717,1.5766,1.5825,1.5881,1.5903,1.5948,1.5978,1.5999,1.6047,1.6067,1.6107,1.6153,1.6203,1.6236,1.6285,1.6352,1.6365,1.6378,1.6381,1.6383,1.6388,1.6423,1.6429,1.6366,1.6366,1.6366,0,0,1.5727,1.5772,1.5801,1.5879,1.5916,1.5965,1.5964,1.6016,1.6052,1.6074,1.6137,1.6169,1.6223,1.6288,1.6318,1.6315,1.6408,1.6387,1.6388,1.6392,1.6427,1.6433,1.6438,1.6368,1.6368,1.6367,0,0,1.577,1.581,1.5859,1.5897,1.5954,1.5983,1.5995,1.6056,1.6077,1.6141,1.6158,1.6201,1.6287,1.6324,1.6354,1.6409,1.642,1.6425,1.644,1.6474,1.6479,1.6483,1.6501,1.6507,1.643,1.643,1.643,0,1.5776,1.585,1.5883,1.5934,1.5967,1.5989,1.6038,1.6073,1.6143,1.6165,1.616,1.6267,1.6305,1.6378,1.6391,1.6416,1.6429,1.6417,1.6476,1.648,1.6485,1.6503,1.6509,1.643,1.643,1.643,1.643,0,1.5853,1.5904,1.5937,1.6004,1.6041,1.609,1.613,1.6163,1.618,1.6209,1.6272,1.6319,1.6377,1.6396,1.6413,1.6471,1.6467,1.6468,1.6459,1.6491,1.6507,1.6515,1.643,1.643,1.643,1.643,0,0,1.589,1.5973,1.5985,1.6014,1.6078,1.6118,1.6168,1.6225,1.6251,1.6299,1.6341,1.6412,1.6413,1.6447,1.6469,1.6499,1.6537,1.6496,1.6498,1.6501,1.6601,1.6598,1.6606,1.6544,1.6546,1.6547,1.6596,0,1.594,1.603,1.6061,1.6135,1.6182,1.6203,1.6246,1.6289,1.6318,1.6361,1.6392,1.6442,1.6441,1.6461,1.6491,1.6526,1.6557,1.6523,1.6582,1.6584,1.6567,1.6615,1.6613,1.6657,1.6603,1.6604,1.6605,0,1.601,1.6057,1.6136,1.6193,1.6213,1.6252,1.6305,1.6347,1.6395,1.6414,1.6451,1.647,1.6521,1.6509,1.658,1.6556,1.6582,1.6602,1.6604,1.661,1.6595,1.662,1.6672,1.6678,1.6616,1.6615,1.6614,0,1.6026,1.6111,1.6168,1.6193,1.6261,1.6287,1.6316,1.6363,1.6395,1.6442,1.6462,1.6514,1.6542,1.6581,1.6613,1.6602,1.668,1.6671,1.6696,1.6695,1.6711,1.6709,1.6766,1.673,1.673,1.673,1.6729,0,1.6078,1.6125,1.6176,1.6212,1.6265,1.6299,1.635,1.638,1.6422,1.6462,1.6484,1.6521,1.6562,1.6604,1.6629,1.6683,1.6696,1.6711,1.6717,1.6709,1.6706,1.6725,1.6723,1.6731,1.6731,1.6731,1.673,0,1.6105,1.6142,1.6206,1.6264,1.628,1.6316,1.6365,1.6399,1.6428,1.6479,1.6493,1.6539,1.659,1.6625,1.6691,1.6708,1.6765,1.6771,1.6748,1.6751,1.6773,1.677,1.6843,1.6853,1.6811,1.6812,1.6812,0,1.6135,1.6172,1.6233,1.6262,1.6291,1.6338,1.637,1.6404,1.6436,1.6493,1.652,1.6573,1.6616,1.6696,1.6735,1.6784,1.6791,1.6813,1.6799,1.6788,1.679,1.6786,1.6789,1.6815,1.6815,1.6816,1.6816,0,1.6183,1.6199,1.6245,1.6296,1.6334,1.6376,1.6418,1.644,1.6482,1.6517,1.6569,1.6603,1.6669,1.672,1.6773,1.6802,1.6815,1.682,1.6828,1.6819,1.6804,1.6811,1.6753,1.6818,1.6818,1.6818,1.6818,1.6817,1.6212,1.6245,1.6293,1.6342,1.6377,1.6416,1.6451,1.6484,1.6528,1.6584,1.6602,1.6655,1.6701,1.6774,1.6804,1.6846,1.6844,1.6856,1.6859,1.6861,1.686,1.6798,1.6856,1.6856,1.6856,1.6856,1.6856,0,1.626,1.6292,1.6337,1.6395,1.6433,1.6443,1.6489,1.6521,1.6568,1.661,1.6652,1.671,1.676,1.6801,1.6852,1.6877,1.6884,1.6889,1.6887,1.6893,1.6859,1.6846,1.6882,1.6882,1.6882,1.6882,1.6882,1.6882,1.6289,1.6344,1.6366,1.6438,1.6469,1.6522,1.6548,1.6583,1.6616,1.6681,1.6722,1.6749,1.679,1.6843,1.6888,1.6899,1.6916,1.6919,1.6931,1.6899,1.6896,1.6893,1.6881,1.6923,1.6923,1.6962,1.6962,1.6962]},{"header":{"parameterUnit":"m.s-1","parameterCategory":1,"la1":30.2991,"la2":30.254,"lo1":-89.0895,"lo2":-89.0444,"dy":0.0017,"dx":0.0017,"nx":28,"ny":28,"refTime":"2024-04-13T03:00:00:Z","depth":0,"parameterNumber":3,"parameterNumberName":"V-component_of_WINDS"},"data":[0,0,0,0,0,0,0,0,0,0,0,0,0,0,0,0,0,0,0,0,0,0,0,0,0,0,0,0,0,0,0,0,0,0,0,0,0,0,0,0,0,0,0,0,0,0,0,0,0,0,0,0,0,0,0,0,0,0,3.7876,3.7876,0,3.7884,3.7884,3.7884,3.7812,3.781,3.7808,3.7806,3.7815,3.7817,3.7819,0,0,0,0,0,0,0,0,0,0,0,0,0,3.7797,3.7799,3.7876,3.7876,3.7876,3.7884,3.7884,3.7884,3.7813,3.781,3.7808,3.7806,3.7814,3.7817,3.7819,0,0,0,0,0,0,0,0,0,0,0,0,0,3.7821,3.78,3.7876,3.7841,3.7838,3.7884,3.7884,3.7884,3.7813,3.781,3.7807,3.7804,3.7813,3.7816,3.7819,3.7898,0,0,3.7829,3.783,0,0,0,0,0,0,0,0,3.782,3.7824,3.7846,3.7844,3.784,3.7844,3.7859,3.7889,3.7814,3.7823,3.7806,3.7803,3.7827,3.7829,3.7837,3.7899,3.7899,3.7829,3.7831,3.7832,3.7833,0,0,0,0,0,0,0,3.7818,3.7823,3.7879,3.7847,3.7843,3.7825,3.7825,3.7864,3.7841,3.7822,3.7817,3.7818,3.7825,3.7834,3.7836,3.7899,3.7829,3.7832,3.7834,3.7835,3.8024,3.8027,0,0,0,0,0,0,3.7821,3.7822,3.7879,3.7879,3.7822,3.7829,3.7829,3.7846,3.7841,3.7837,3.7821,3.7815,3.783,3.7833,3.7837,3.7927,3.7832,3.7835,3.7837,3.8021,3.8024,3.8028,0,0,0,0,0,0,3.782,3.7827,3.7878,3.7849,3.7854,3.7833,3.7853,3.7848,3.7857,3.784,3.7836,3.7835,3.7828,3.7832,3.7883,3.7926,3.7837,3.784,3.8017,3.8022,3.8026,3.8109,0,0,0,0,0,0,3.7818,3.7827,3.7857,3.785,3.7856,3.7925,3.7856,3.785,3.7862,3.7855,3.7852,3.7849,3.7826,3.7879,3.7886,3.7929,3.7842,3.8013,3.8019,3.8025,3.8103,3.8116,3.8128,0,0,0,0,0,3.7815,3.7881,3.7859,3.7866,3.7894,3.7928,3.7931,3.7904,3.7866,3.7896,3.7885,3.7849,3.792,3.7884,3.7892,3.7937,3.801,3.8017,3.8024,3.8097,3.8114,3.8128,0,0,0,0,0,0,3.7894,3.7879,3.7855,3.7921,3.7926,3.7916,3.7953,3.7923,3.7939,3.7931,3.7896,3.7896,3.7952,3.7949,3.791,3.8011,3.7958,3.7967,3.8011,3.8027,3.8039,3.8039,3.7845,0,0,0,0,0,3.7919,3.7948,3.7934,3.7993,3.7997,3.7974,3.7988,3.7966,3.7971,3.7973,3.7965,3.7971,3.7994,3.801,3.8031,3.8102,3.8099,3.8136,3.8149,3.8159,3.8167,3.8202,3.8218,3.8051,3.8051,3.8051,0,0,3.7971,3.7966,3.7987,3.8008,3.801,3.804,3.7977,3.8012,3.8034,3.7978,3.8025,3.802,3.8023,3.8084,3.811,3.8083,3.8213,3.8168,3.8177,3.8179,3.8211,3.8227,3.8241,3.8056,3.8055,3.8054,0,0,3.808,3.8081,3.8129,3.8131,3.8134,3.8118,3.813,3.8124,3.8118,3.8165,3.8123,3.8148,3.819,3.8193,3.8201,3.831,3.8276,3.8317,3.8384,3.8418,3.8431,3.8443,3.848,3.8494,3.8325,3.8326,3.8326,0,3.8144,3.8189,3.8157,3.8195,3.8205,3.8155,3.8202,3.8206,3.8216,3.8224,3.8194,3.8243,3.8242,3.8302,3.8328,3.8336,3.8348,3.8317,3.8432,3.8443,3.8453,3.8489,3.8503,3.8331,3.833,3.833,3.8329,0,3.8266,3.8297,3.8336,3.8345,3.836,3.8402,3.8377,3.8395,3.8371,3.8359,3.8406,3.8403,3.8421,3.8434,3.8412,3.849,3.8473,3.8438,3.8384,3.8475,3.8507,3.8521,3.8338,3.8336,3.8334,3.8333,0,0,3.8427,3.8417,3.8431,3.8434,3.8433,3.8456,3.8495,3.8513,3.8528,3.8536,3.8568,3.8603,3.857,3.8579,3.8556,3.8587,3.8671,3.8548,3.8547,3.857,3.8756,3.8781,3.8797,3.865,3.8652,3.8654,3.8755,0,3.8532,3.8599,3.8571,3.864,3.8668,3.862,3.8654,3.8656,3.8645,3.8666,3.8654,3.8679,3.8635,3.8639,3.8667,3.8655,3.8708,3.8648,3.8678,3.8679,3.8677,3.8815,3.8842,3.8937,3.8767,3.877,3.8771,0,3.8665,3.8677,3.8749,3.874,3.875,3.8782,3.8794,3.8815,3.8817,3.8806,3.8815,3.8785,3.8822,3.8769,3.8819,3.8779,3.8789,3.8785,3.8788,3.8789,3.873,3.8818,3.8967,3.8981,3.8791,3.879,3.8788,0,3.8773,3.8807,3.8853,3.8858,3.8849,3.8872,3.887,3.8868,3.8879,3.889,3.8897,3.8913,3.8921,3.8934,3.8909,3.8873,3.8962,3.8907,3.8954,3.8955,3.8974,3.8973,3.9126,3.8983,3.8983,3.8983,3.8983,0,3.8893,3.8938,3.8901,3.893,3.8979,3.8946,3.8995,3.8988,3.8986,3.9012,3.8972,3.8997,3.8963,3.8984,3.8965,3.9009,3.9013,3.9005,3.8999,3.9008,3.9009,3.9014,3.9006,3.8987,3.8986,3.8985,3.8984,0,3.9022,3.8999,3.9046,3.9034,3.9032,3.9068,3.9057,3.9083,3.9068,3.9101,3.9107,3.9085,3.9108,3.9084,3.9106,3.9093,3.9151,3.9136,3.9151,3.9146,3.9194,3.9189,3.9354,3.9374,3.922,3.9221,3.9222,0,3.9099,3.9133,3.9123,3.9137,3.9137,3.9161,3.9171,3.914,3.9153,3.9156,3.9181,3.92,3.9214,3.9253,3.9239,3.9255,3.9239,3.9296,3.9242,3.9249,3.9239,3.9236,3.9239,3.9307,3.9309,3.931,3.9312,0,3.9239,3.9226,3.9243,3.9256,3.927,3.9279,3.9285,3.9299,3.9266,3.9282,3.9305,3.9316,3.9337,3.9357,3.9368,3.9365,3.9333,3.9329,3.934,3.9349,3.9356,3.9351,3.918,3.9325,3.9324,3.9323,3.9322,3.9322,3.9344,3.9371,3.9367,3.9387,3.9388,3.9394,3.9416,3.9404,3.9422,3.9437,3.9417,3.9445,3.9443,3.9455,3.9456,3.9477,3.9453,3.947,3.9474,3.9478,3.9485,3.9353,3.9479,3.9479,3.9478,3.9478,3.9478,0,3.948,3.9475,3.9494,3.9502,3.9518,3.9485,3.949,3.9505,3.9529,3.953,3.9544,3.957,3.9588,3.9574,3.959,3.9609,3.9594,3.9614,3.9612,3.9611,3.9506,3.9494,3.9625,3.9625,3.9625,3.9625,3.9625,3.9625,3.9553,3.9596,3.9582,3.9624,3.9618,3.9644,3.9649,3.9654,3.9655,3.9684,3.9699,3.9689,3.9684,3.9699,3.9714,3.9709,3.9716,3.9741,3.9731,3.9633,3.9619,3.9605,3.9593,3.9743,3.9743,3.9834,3.9835,3.9835]}]]